Regional Weather Roundup
Issued by NWS

Home | Current Version | Previous Version | Text Only | Print | Product List | Glossary Off
Versions: 1 2 3 4 5 6 7 8 9 10 11 12 13 14 15 16 17 18 19 20 21 22 23 24 25 26 27 28 29 30 31 32 33 34 35 36 37 38 39 40 41 42 43 44 45 46 47 48 49 50

910
ASUS45 KBOI 250210
RWRID

IDAHO REGIONAL WEATHER ROUNDUP
NATIONAL WEATHER SERVICE BOISE ID
800 PM MDT MON APR 24 2017

NOTE: "FAIR" INDICATES FEW OR NO CLOUDS BELOW 12000 FEET
WITH NO SIGNIFICANT WEATHER AND/OR OBSTRUCTIONS TO VISIBILITY

IDZ012-014-250300-
SOUTHWEST IDAHO


CITY           SKY/WX    TMP DP  RH WIND       PRES   REMARKS
BOISE          CLOUDY    48  40  73 NE8       29.72S
CALDWELL       CLOUDY    50  40  68 SW12      29.72R
MOUNTAIN HOME  LGT RAIN  46  46 100 W9        29.72S
$$

IDZ016-017-250300-
SOUTHCENTRAL IDAHO


CITY           SKY/WX    TMP DP  RH WIND       PRES   REMARKS
BURLEY         LGT RAIN  43  36  76 W21G30    29.70R
JEROME         PTCLDY    44  38  79 SW14      29.71S
TWIN FALLS     PTCLDY    42  40  92 SW12      29.72S
$$

IDZ019>023-250300-
SOUTHEAST IDAHO


CITY           SKY/WX    TMP DP  RH WIND       PRES   REMARKS
IDAHO FALLS    CLOUDY    45  39  79 S17       29.62S
POCATELLO      MOCLDY    46  37  71 SW24G31   29.67R
REXBURG        CLOUDY    45  37  73 S16G26    29.60R
$$

IDZ006-010-011-018-031-032-250300-
CENTRAL IDAHO MOUNTAINS


CITY           SKY/WX    TMP DP  RH WIND       PRES   REMARKS
MCCALL         CLOUDY    39  34  82 SE9       29.66R WCI  33
HAILEY         PTCLDY    46  27  46 SW16      29.64R
STANLEY          N/A     38  25  59 N5        29.68R WCI  34
SALMON         CLOUDY    41  37  87 NW3       29.64R
CHALLIS        CLOUDY    44  38  79 N14       29.61R
$$

IDZ002-004-006-007-026-250300-
NORTHERN IDAHO


CITY           SKY/WX    TMP DP  RH WIND       PRES   REMARKS
LEWISTON       CLOUDY    52  46  80 SW6       29.68R
LOWELL           N/A     52  47  83 N3        29.67R
COEUR D`ALENE  PTCLDY    48  41  76 S5        29.69S
MULLAN PASS    FOG       31  31 100 NW6       29.65R VSB 1/4 WCI  25
$$




USA.gov is the U.S. government's official web portal to all federal, state and local government web resources and services.